Preview of NWS' New Version of Forecast
This preview is not operational and should not be used for support decisions.

Regional Weather Roundup (RWR)

Issued by National Weather Service (NWS)

                            
000
ASUS43 KDTX 180810
RWRMI 
MICHIGAN HOURLY REGIONAL WEATHER ROUNDUP
NATIONAL WEATHER SERVICE DETROIT/PONTIAC MI
400 AM EDT TUE JUN 18 2019

NOTE: "FAIR" INDICATES FEW OR NO CLOUDS BELOW 12,000 FEET WITH NO
SIGNIFICANT WEATHER AND/OR OBSTRUCTION TO VISIBILITY.

MIZ047>049-052>055-059>063-066>070-074>076-081>083-180900-
SOUTHEAST LOWER MICHIGAN
  
CITY           SKY/WX    TMP DP  RH WIND       PRES   REMARKS
ADRIAN         FAIR      59  57  93 CALM      29.97S                  
ALMA           FOG       55  53  94 CALM      29.98F VSB 1/4          
ANN ARBOR      CLOUDY    58  57  97 CALM      29.96S FOG              
BAD AXE        FAIR      47  46  95 CALM      29.98F                  
CARO           CLOUDY    56  55  95 CALM      29.96F                  
DETROIT CITY   FAIR      59  51  75 CALM      29.97S                  
DETROIT        CLOUDY    61  55  81 NE3       29.96F                  
FLINT          MOCLDY    60  56  86 E5        29.96F                  
GROSSE ILE     CLOUDY    60  56  86 N3        29.96R                  
HILLSDALE      CLOUDY    57  56  97 CALM      29.97F FOG              
HOWELL         CLOUDY    60  57  90 CALM      29.97F                  

CITY           SKY/WX    TMP DP  RH WIND       PRES   REMARKS
JACKSON        MOCLDY    59  59 100 CALM      29.97S FOG              
LAMBERTVILLE   CLOUDY    62  61  97 CALM      29.95F                  
LANSING        CLOUDY    63  61  93 CALM      29.97F                  
LAPEER         MOCLDY    57  55  95 CALM      29.98S                  
MASON          CLOUDY    63  61  91 CALM      29.97F                  
MONROE         CLOUDY    63  62  97 CALM      29.95S                  
MT. CLEMENS    FAIR      56  56 100 N3        29.95F                  
PONTIAC        MOCLDY    60  58  92 CALM      29.96F                  
PORT HOPE        N/A     48  46  93 CALM      29.97F                  
PORT HURON     CLOUDY    59  50  72 CALM      29.97F                  
TRI CITIES     FAIR      57  56  96 N3        29.98F                  
MIDLAND        FAIR      52  50  93 CALM      29.98F                  
TROY           MOCLDY    60  53  75 CALM      29.99S                  
SAGINAW HB     MOCLDY    61  57  88 CALM      29.96F                  
$$
MIZ043>046-050>051-056>058-064>065-071>073-077>080-180900-
SOUTHWEST LOWER MICHIGAN
  
CITY           SKY/WX    TMP DP  RH WIND       PRES   REMARKS
BATTLE CREEK   MOCLDY    61  60  97 CALM      29.98F                  
BENTON HARBOR  FAIR      57  55  93 CALM      29.97S                  
BIG RAPIDS     FAIR      54  52  94 W3        29.97F                  
COLDWATER      CLOUDY    60  60 100 CALM      29.97F FOG              
FREMONT        FAIR      54  52  94 CALM      29.98S                  
HOLLAND        CLOUDY    58  56  93 CALM      29.98S                  
GRAND RAPIDS   FAIR      57  55  93 CALM      29.98S                  
IONIA          FOG       60  58  96 CALM      29.97F VSB 1            
KALAMAZOO      CLOUDY    64  61  90 CALM      29.98S                  
LUDINGTON      FAIR      51  50  97 CALM      29.98S                  
MARSHALL       CLOUDY    62  62 100 CALM      29.97S FOG              
MOUNT PLEASANT FOG       54  53  99 CALM      29.98S VSB 3/4          
MUSKEGON       CLOUDY    62  54  74 CALM      29.98S                  
SOUTH HAVEN    FAIR      56  55  95 CALM      29.98R                  
$$
MIZ016>042-180900-
NORTHERN LOWER MICHIGAN
  
CITY           SKY/WX    TMP DP  RH WIND       PRES   REMARKS
ALPENA         FAIR      47  45  93 CALM      29.98F                  
BEAVER ISLAND  FAIR      52  49  89 CALM      29.98R                  
BELLAIRE       FAIR      51  49  92 CALM      29.97S                  
CADILLAC       FAIR      49  48  95 CALM      29.97S                  
CHARLEVOIX     FAIR      56  51  84 SE3       29.99S                  
FRANKFORT      FAIR      56  50  82 NW3       29.98R                  
GAYLORD        FAIR      54  49  83 CALM      29.98F                  
HARBOR SPRINGS FAIR      56  53  89 CALM      29.96S                  
HOUGHTON LAKE  FAIR      52  49  89 CALM      29.98F                  
MANISTEE       FAIR      50  49  96 CALM      29.97F                  
OSCODA         FAIR      44  42  95 CALM      29.98S                  
PELLSTON       FAIR      51  49  92 CALM      29.97S                  
ROGERS CITY    FAIR      48  46  93 CALM      29.98F                  
TRAVERSE CITY  FAIR      53  50  89 CALM      29.96S                  
$$
MIZ007>008-015-180900-
EASTERN UPPER MICHIGAN
  
CITY           SKY/WX    TMP DP  RH WIND       PRES   REMARKS
KINROSS        FAIR      57  47  69 S3        29.97S                  
MACKINAC ISLAN FAIR      53  49  86 SE6       29.96F                  
NEWBERRY       FAIR      56  53  91 W3        29.97S                  
S. S. MARIE    FAIR      54  49  83 NE3       29.96F                  
MUNISING         N/A     57  51  80 SW7       29.95F                  
$$
MIZ004>006-011>014-085-180900-
CENTRAL UPPER MICHIGAN
  
CITY           SKY/WX    TMP DP  RH WIND       PRES   REMARKS
ESCANABA       LGT RAIN  55  53  93 CALM      29.98S                  
MENOMINEE      MOCLDY    59  53  80 SW3       29.97F                  
SAWYER-GWINN   CLOUDY    57  53  87 S8        29.95F                  
$$
MIZ001>003-009>011-084-180900-
WESTERN UPPER MICHIGAN
  
CITY           SKY/WX    TMP DP  RH WIND       PRES   REMARKS
IRON MOUNTAIN  LGT RAIN  58  54  86 E3        29.95F                  
HOUGHTON       CLOUDY    50  45  83 SE3       29.94F                  
COPPER HARBOR    N/A     47  45  93 CALM      29.93F                  
IRONWOOD       MOCLDY    48  48 100 CALM      29.96F FOG              
$$

ABBREVIATIONS USED IN REMARKS
   TC - TEMPERATURE IN CELSIUS
  WCI - WIND CHILL INDEX
   HX - HEAT INDEX
  VSB - VISIBILITY